AirNav   Everest Fuels
 
 501 users online  

4C3 Yalesville Heliport
Yalesville, Connecticut, USA

GOING TO YALESVILLE?


FAA INFORMATION EFFECTIVE 21 MAY 2020

Location

FAA Identifier: 4C3
Lat/Long: 41-29-30.8000N 072-48-40.2000W
41-29.513333N 072-48.670000W
41.4918889,-72.8111667
(estimated)
Elevation: 65 ft. / 20 m (estimated)
Variation: 14W (2000)
From city: 2 miles N of YALESVILLE, CT
Time zone: UTC -4 (UTC -5 during Standard Time)
Zip code: 06492

Heliport Operations

Heliport use: Open to the public
Activation date: 06/2002
Control tower: no
ARTCC: BOSTON CENTER
FSS: BRIDGEPORT FLIGHT SERVICE STATION
NOTAMs facility: BDR (NOTAM-D service available)
Attendance: MON-FRI 08:30 TO 17:00 LOCAL, ALL SATURDAY 0900-1600 LOCAL
Wind indicator: lighted
Segmented circle: no
Lights: PCL 123.50
Beacon: white-green-yellow (heliport)
ACTVT ROTG BCN - 123.50.

Heliport Communications

CTAF/UNICOM: 123.05
WX ASOS at MMK (1.3 nm NW): 134.925 (203-639-9405)
WX AWOS-AV at CT71 (13 nm N): 129.825
WX ASOS at HVN (14 nm S): PHONE 203-466-6205
WX AWOS-3PT at OXC (15 nm W): 132.975 (203-262-1190)
WX AWOS-3 at SNC (15 nm SE): 118.325 (860-526-1551)
WX ASOS at HFD (16 nm NE): PHONE 860-527-5837

Nearby radio navigation aids

VOR radial/distance  VOR name  Freq  Var
MADr346/11.9MADISON VOR/DME110.4013W
HFDr246/14.8HARTFORD VOR/DME114.9013W
BDRr047/24.4BRIDGEPORT VOR/DME108.8012W
CCCr012/33.7CALVERTON VOR/DME117.2013W
GONr300/35.5GROTON VOR/DME110.8514W
ORWr278/36.7NORWICH VOR/DME110.0014W
CMKr082/36.9CARMEL VOR/DME116.6012W
PWLr127/39.1PAWLING VOR/DME114.3012W

Heliport Services

Fuel available: 100LL JET-A
CALL IN ADVANCE FOR FUEL 203-294-8800
Parking: hangars and tiedowns
Airframe service: MAJOR
Powerplant service: MAJOR
Bottled oxygen: NONE
Bulk oxygen: NONE

Runway Information

Helipad H1

Dimensions: 65 x 65 ft. / 20 x 20 m
Surface: concrete, in good condition
Traffic pattern: leftleft
Markings: basic, in fair condition

Heliport Ownership and Management from official FAA records

Ownership: Privately-owned
Owner: UNITED CONCRETE PRODUCTS
173 CHURCH STREET, ATTEN: JONATHAN GAVIN
YALESVILLE, CT 06492
Phone 203-269-3119
Manager: ANDREW HAYDEN
AIROCEAN AVIATION, LLC, , 120 CHURCH STREET
YALESVILLE, CT 06492
Phone 203-294-8800

Heliport Operational Statistics

Aircraft operations: avg 62/month *
67% transient general aviation
33% air taxi
* for 12-month period ending 30 September 2015

Additional Remarks

PILOTS UNFAMILIAR WITH HELIPORT CONTACT 203-294-8800 PRIOR TO ARRIVAL FOR A BRIEFING ON CURRENT PROCEDURES.
FOR CD CTC YANKEE APCH AT 860-386-3597.

Instrument Procedures

There are no published instrument procedures at 4C3.

Some nearby airports with instrument procedures:

KMMK - Meriden Markham Municipal Airport (1 nm NW)
4B8 - Robertson Field Airport (12 nm N)
KHVN - Tweed-New Haven Airport (14 nm S)
KOXC - Waterbury-Oxford Airport (15 nm W)
KSNC - Chester Airport (15 nm SE)
KHFD - Hartford-Brainard Airport (16 nm NE)
 
Loc | Ops | Rwys | IFR | FBO | Links
Com | Nav | Svcs | Stats | Notes

Silver City Flying Club
 
Area around 4C3 (Yalesville Heliport)
 
Road maps at: MapQuest Bing Google
 
Aerial photo
WARNING: Photo may not be current or correct
Aerial photo of 4C3 (Yalesville Heliport)
Photo courtesy of AirOcean Aviation, LLC
Taken in October 2008
from a Schweizer 300 helicopter

Do you have a better or more recent aerial photo of Yalesville Heliport that you would like to share? If so, please send us your photo.

 
Sectional chart

 
Airport distance calculator
Flying to Yalesville Heliport? Find the distance to fly.

From to 4C3

Sunrise and sunset
Times for 02-Jun-2020
 Local
(UTC-4)
 Zulu
(UTC)
Morning civil twilight04:4708:47
Sunrise05:2009:20
Sunset20:1900:19
Evening civil twilight20:5200:52

Current date and time
Zulu (UTC)  02-Jun-2020 05:43:53
Local (UTC-4)  02-Jun-2020 01:43:53
 
METAR
KMMK 
2nm NW 
020453Z AUTO 29003KT 10SM CLR 09/06 A3007 RMK AO2 SLP182 T00890061 402000039
KHVN 
14nm S 
020453Z AUTO 28003KT 10SM CLR 13/08 A3006 RMK AO2 SLP179 T01330083 402060061
KOXC 
14nm W 
020451Z AUTO 00000KT 10SM CLR 07/04 A3007 RMK AO2 SLP198 T00670044 401830039
KSNC 
15nm SE 
020415Z AUTO 22003KT 10SM FEW120 11/10 A3007 RMK AO2
KHFD 
16nm NE 
020453Z AUTO 00000KT 10SM FEW085 10/07 A3006 RMK AO2 SLP180 T01000067 402000061
TAF
KBDR 
24nm SW 
020219Z 0202/0224 VRB03KT P6SM FEW100 SCT150 FM021300 24006KT P6SM SCT100 BKN150 FM021500 23009KT P6SM SCT040 BKN070
KBDL 
27nm N 
012037Z 0121/0224 31010G21KT P6SM BKN070 FM012300 29005KT P6SM BKN060 FM021500 25006KT P6SM BKN060
NOTAMs
Click for the latest NOTAMs
NOTAMs are issued by the DoD/FAA and will open in a separate window not controlled by AirNav.

 

 
 

Would you like to see your business listed on this page?

 If your business provides an interesting product or service to pilots, flight crews, aircraft, or users of the Yalesville Heliport, you should consider listing it here.  To start the listing process, click on the button below
 
Add a business
 

Other Pages about Yalesville Heliport

Update a link
 
Copyright © AirNav, LLC. All rights reserved. Privacy Policy  Contact